Weather History for KRKD - December, 2012

Change the Weather History Date:

Saturday, December 8, 2012

  Actual Average (KAUG) Record (KAUG)
Temperature  
Mean Temperature 40 °F 29 °F  
Max Temperature 42 °F 36 °F - ()
Min Temperature 37 °F 22 °F - ()
Degree Days  
Heating Degree Days 26 36  
Month to date heating degree days 277  
Since 1 July heating degree days 1825  
Cooling Degree Days 0 0  
Month to date cooling degree days 0  
Year to date cooling degree days 388  
Moisture  
Dew Point 39 °F    
Average Humidity 96    
Maximum Humidity 100    
Minimum Humidity 93    
Precipitation  
Precipitation 0.18 in 0.11 in - ()
Month to date precipitation 0.96  
Year to date precipitation 39.60  
Sea Level Pressure  
Sea Level Pressure 29.94 in    
Wind  
Wind Speed 3 mph (North)    
Max Wind Speed 10 mph    
Max Gust Speed -    
Visibility 6 miles    
Events      
T = Trace of Precipitation, MM = Missing Value Source: NWS Daily Summary

Daily Weather History Graph

Daily Weather History Graph

Search for Another Location

Airport or City:

Trip Planner

Search our weather history database for the weather conditions in past years. The results will help you decide how hot, cold, wet, or windy it might be!

Date:

Astronomy

Dec. 08, 2012 Rise Set
Actual Time 6:58 AM EST 3:58 PM EST
Civil Twilight 6:26 AM EST 4:30 PM EST
Nautical Twilight 5:49 AM EST 5:07 PM EST
Astronomical Twilight 5:14 AM EST 5:42 PM EST
Moon 1:10 AM EST (12/8) 12:34 PM EST (12/8)
Length of Visible Light 10h 04m
Length of Day
8h 59m
Waning Crescent, 28% of the Moon is Illuminated
Dec 8
Waning Crescent
Dec 13
New
Dec 20
First Quarter
Dec 28
Full
Jan 4
Last Quarter

Hourly Weather History & Observations

Time (EST) Temp. Windchill Dew Point Humidity Pressure Visibility Wind Dir Wind Speed Gust Speed Precip Events Conditions
12:15 AM 39.2 °F - 37.4 °F 93% 30.03 in 10.0 mi Calm Calm - N/A   Overcast
12:35 AM 39.2 °F - 37.4 °F 93% 30.03 in 10.0 mi Calm Calm - N/A   Overcast
12:55 AM 39.2 °F - 37.4 °F 93% 30.03 in 10.0 mi Calm Calm - N/A   Overcast
1:15 AM 39.2 °F - 37.4 °F 93% 30.03 in 10.0 mi Calm Calm - N/A   Overcast
1:35 AM 39.2 °F 37.0 °F 37.4 °F 93% 30.03 in 10.0 mi WNW 3.5 mph - N/A   Overcast
1:55 AM 39.2 °F 37.0 °F 37.4 °F 93% 30.03 in 10.0 mi WNW 3.5 mph - N/A   Overcast
2:15 AM 39.2 °F - 37.4 °F 93% 30.03 in 10.0 mi Calm Calm - N/A   Overcast
2:35 AM 39.2 °F - 37.4 °F 93% 30.03 in 10.0 mi Calm Calm - N/A   Overcast
2:55 AM 39.2 °F - 37.4 °F 93% 30.02 in 10.0 mi Calm Calm - N/A   Overcast
3:15 AM 39.2 °F - 37.4 °F 93% 30.02 in 10.0 mi Calm Calm - N/A   Overcast
3:35 AM 39.2 °F - 37.4 °F 93% 30.02 in 10.0 mi Calm Calm - N/A   Overcast
3:55 AM 39.2 °F - 37.4 °F 93% 30.01 in 8.0 mi Calm Calm - N/A   Overcast
4:15 AM 37.4 °F - 35.6 °F 93% 30.01 in 7.0 mi Calm Calm - N/A   Overcast
4:35 AM 37.4 °F - 35.6 °F 93% 30.01 in 6.0 mi Calm Calm - N/A   Overcast
4:55 AM 37.4 °F - 35.6 °F 93% 30.01 in 7.0 mi Calm Calm - N/A   Overcast
5:15 AM 37.4 °F - 35.6 °F 93% 30.01 in 6.0 mi Calm Calm - N/A   Overcast
5:35 AM 37.4 °F - 35.6 °F 93% 30.01 in 5.0 mi Calm Calm - N/A   Overcast
5:55 AM 39.2 °F - 37.4 °F 93% 30.02 in 6.0 mi Calm Calm - N/A   Overcast
6:15 AM 37.4 °F - 35.6 °F 93% 30.03 in 5.0 mi Calm Calm - N/A   Overcast
6:35 AM 39.2 °F 35.9 °F 37.4 °F 93% 30.02 in 10.0 mi ENE 4.6 mph - N/A   Overcast
6:55 AM 39.2 °F 37.0 °F 39.2 °F 100% 30.03 in 10.0 mi NE 3.5 mph - N/A   Overcast
7:15 AM 39.2 °F 35.9 °F 39.2 °F 100% 30.03 in 10.0 mi NE 4.6 mph - N/A   Overcast
7:35 AM 39.2 °F 35.9 °F 39.2 °F 100% 30.03 in 10.0 mi NNE 4.6 mph - N/A   Overcast
7:55 AM 39.2 °F 35.0 °F 39.2 °F 100% 30.02 in 10.0 mi NE 5.8 mph - 0.01 in   Overcast
8:15 AM 39.2 °F 35.0 °F 39.2 °F 100% 30.02 in 5.0 mi NNE 5.8 mph - N/A   Overcast
8:35 AM 39.2 °F 35.0 °F 39.2 °F 100% 30.02 in 7.0 mi NNE 5.8 mph - 0.01 in   Overcast
8:55 AM 39.2 °F 35.0 °F 37.4 °F 93% 30.02 in 7.0 mi NE 5.8 mph - 0.03 in   Overcast
9:15 AM 41.0 °F 36.4 °F 39.2 °F 93% 30.01 in 7.0 mi NE 6.9 mph - 0.01 in   Overcast
9:35 AM 41.0 °F 38.0 °F 41.0 °F 100% 30.00 in 8.0 mi NE 4.6 mph - 0.02 in   Overcast
9:55 AM 41.0 °F 36.4 °F 41.0 °F 100% 29.99 in 8.0 mi NE 6.9 mph - 0.03 in   Mostly Cloudy
10:15 AM 41.0 °F 36.4 °F 41.0 °F 100% 29.98 in 8.0 mi NE 6.9 mph - N/A   Overcast
10:35 AM 41.0 °F 36.4 °F 41.0 °F 100% 29.98 in 3.0 mi NNE 6.9 mph - N/A   Overcast
10:55 AM 41.0 °F 37.1 °F 39.2 °F 93% 29.96 in 2.0 mi NNE 5.8 mph - N/A   Overcast
11:15 AM 41.0 °F 38.0 °F 39.2 °F 93% 29.94 in 2.5 mi NNE 4.6 mph - 0.01 in   Overcast
11:35 AM 41.0 °F 36.4 °F 39.2 °F 93% 29.93 in 2.0 mi NNE 6.9 mph - 0.01 in   Overcast
11:55 AM 41.0 °F 37.1 °F 39.2 °F 93% 29.93 in 2.0 mi NNE 5.8 mph - 0.03 in   Overcast
12:15 PM 41.0 °F 38.0 °F 41.0 °F 100% 29.92 in 3.0 mi NNE 4.6 mph - 0.02 in   Overcast
12:35 PM 41.0 °F 37.1 °F 41.0 °F 100% 29.90 in 2.5 mi NNE 5.8 mph - 0.04 in   Overcast
12:55 PM 42.8 °F 37.5 °F 41.0 °F 93% 29.89 in 8.0 mi NNE 9.2 mph - 0.04 in   Overcast
1:15 PM 42.8 °F 38.0 °F 41.0 °F 93% 29.89 in 2.5 mi NNE 8.1 mph - 0.01 in   Overcast
1:35 PM 42.8 °F 38.0 °F 41.0 °F 93% 29.89 in 3.0 mi NNE 8.1 mph - 0.03 in   Overcast
1:55 PM 42.8 °F 37.0 °F 42.8 °F 100% 29.87 in 5.0 mi NE 10.4 mph - 0.04 in   Overcast
2:35 PM 41.0 °F 35.8 °F 41.0 °F 100% 29.86 in 10.0 mi NNE 8.1 mph - N/A   Overcast
2:55 PM 41.0 °F 35.2 °F 39.2 °F 93% 29.86 in 10.0 mi NNE 9.2 mph - N/A   Overcast
3:35 PM 41.0 °F 36.4 °F 41.0 °F 100% 29.86 in 5.0 mi NNE 6.9 mph - N/A   Overcast
3:55 PM 41.0 °F 35.8 °F 41.0 °F 100% 29.85 in 4.0 mi NNE 8.1 mph - N/A   Overcast
4:15 PM 41.0 °F 35.8 °F 41.0 °F 100% 29.85 in 8.0 mi NE 8.1 mph - N/A   Overcast
4:35 PM 41.0 °F 37.1 °F 41.0 °F 100% 29.85 in 10.0 mi NNE 5.8 mph - N/A   Overcast
4:55 PM 42.8 °F 39.3 °F 41.0 °F 93% 29.85 in 10.0 mi NNE 5.8 mph - N/A   Overcast
5:15 PM 42.8 °F 40.1 °F 41.0 °F 93% 29.85 in 6.0 mi North 4.6 mph - N/A   Overcast
5:35 PM 41.0 °F - 41.0 °F 100% 29.85 in 7.0 mi Calm Calm - N/A   Overcast
5:55 PM 41.0 °F 39.0 °F 41.0 °F 100% 29.85 in 7.0 mi NW 3.5 mph - N/A   Overcast
6:15 PM 41.0 °F 39.0 °F 41.0 °F 100% 29.85 in 7.0 mi WNW 3.5 mph - N/A   Overcast
6:35 PM 41.0 °F - 41.0 °F 100% 29.84 in 5.0 mi Calm Calm - N/A   Overcast
6:55 PM 41.0 °F 38.0 °F 39.2 °F 93% 29.85 in 3.0 mi WNW 4.6 mph - N/A   Overcast
7:15 PM 39.2 °F - 39.2 °F 100% 29.84 in 1.5 mi Calm Calm - N/A   Overcast
7:35 PM 39.2 °F 35.0 °F 39.2 °F 100% 29.84 in 3.0 mi WNW 5.8 mph - N/A   Overcast
7:55 PM 39.2 °F 34.2 °F 39.2 °F 100% 29.85 in 2.5 mi West 6.9 mph - N/A   Overcast
8:15 PM 39.2 °F 34.2 °F 39.2 °F 100% 29.86 in 6.0 mi West 6.9 mph - N/A   Overcast
8:35 PM 39.2 °F 35.0 °F 39.2 °F 100% 29.85 in 4.0 mi West 5.8 mph - N/A   Overcast
8:55 PM 39.2 °F 35.9 °F 39.2 °F 100% 29.86 in 1.5 mi WNW 4.6 mph - N/A   Overcast
9:15 PM 39.2 °F 37.0 °F 39.2 °F 100% 29.85 in 0.8 mi West 3.5 mph - N/A   Overcast
9:35 PM 39.2 °F 34.2 °F 37.4 °F 93% 29.86 in 0.8 mi West 6.9 mph - N/A   Overcast
9:55 PM 39.2 °F 35.9 °F 37.4 °F 93% 29.85 in 3.0 mi West 4.6 mph - N/A   Overcast
10:15 PM 37.4 °F 31.4 °F 37.4 °F 100% 29.86 in 5.0 mi West 8.1 mph - N/A   Overcast
10:35 PM 37.4 °F 32.8 °F 37.4 °F 100% 29.86 in 3.0 mi West 5.8 mph - N/A   Overcast
10:55 PM 37.4 °F 31.4 °F 37.4 °F 100% 29.87 in 5.0 mi West 8.1 mph - N/A   Overcast
11:35 PM 37.4 °F 31.4 °F 37.4 °F 100% 29.87 in 2.5 mi West 8.1 mph - N/A   Overcast
11:55 PM 37.4 °F 31.4 °F 37.4 °F 100% 29.89 in 3.0 mi West 8.1 mph - N/A   Overcast